Madison, WI

11:19 AM CDT on March 25, 2017 (GMT -0500)
Dane County Regional-Truax

Weather History for KMSN - December, 2014

Change the Weather History Date:

Wednesday, December 3, 2014

  Actual Average Record
Temperature  
Mean Temperature 25 °F 27 °F  
Max Temperature 32 °F 35 °F 65 °F (2012)
Min Temperature 18 °F 20 °F -12 °F (1940)
Degree Days  
Heating Degree Days 40 38  
Month to date heating degree days 139 112  
Since 1 July heating degree days 1823 1691  
Cooling Degree Days 0 0  
Month to date cooling degree days 0 0  
Year to date cooling degree days 620 568  
Moisture  
Dew Point 12 °F    
Average Humidity 57    
Maximum Humidity 75    
Minimum Humidity 39    
Precipitation  
Precipitation 0.00 in 0.07 in 2.19 in (1990)
Month to date precipitation T 0.22  
Year to date precipitation 34.28 32.96  
Snow  
Snow 0.00 in 0.40 in 17.30 in (1990)
Month to date snowfall T 1.2  
Since 1 July snowfall 8.5 5.3  
Snow Depth 1.00 in    
Sea Level Pressure  
Sea Level Pressure 30.23 in    
Wind  
Wind Speed 6 mph (WNW)    
Max Wind Speed 17 mph    
Max Gust Speed 24 mph    
Visibility 10 miles    
Events      
T = Trace of Precipitation, MM = Missing Value Source: NWS Daily Summary

Daily Weather History Graph

Daily Weather History Graph

Search for Another Location

Airport or City:

Trip Planner

Search our weather history database for the weather conditions in past years. The results will help you decide how hot, cold, wet, or windy it might be!

Date:

Astronomy

Dec. 03, 2014 Rise Set
Actual Time 7:11 AM CST 4:22 PM CST
Civil Twilight 6:39 AM CST 4:54 PM CST
Nautical Twilight 6:03 AM CST 5:30 PM CST
Astronomical Twilight 5:29 AM CST 6:04 PM CST
Moon 2:47 PM CST (12/3) 3:54 AM CST (12/3)
Length of Visible Light 10h 15m
Length of Day
9h 11m
Waxing Gibbous, 91% of the Moon is Illuminated
Dec 3
Waxing Gibbous
Dec 6
Full
Dec 14
Last Quarter
Dec 21
New
Dec 28
First Quarter

Hourly Weather History & Observations

Time (CST) Temp. Windchill Dew Point Humidity Pressure Visibility Wind Dir Wind Speed Gust Speed Precip Events Conditions
12:53 AM 26.1 °F 18.4 °F 19.9 °F 78% 30.02 in 10.0 mi SW 6.9 mph - N/A   Clear
1:53 AM 26.1 °F 17.6 °F 19.9 °F 78% 30.03 in 10.0 mi WSW 8.1 mph - N/A   Mostly Cloudy
2:53 AM 25.0 °F 20.7 °F 18.0 °F 75% 30.04 in 10.0 mi Variable 3.5 mph - N/A   Partly Cloudy
3:53 AM 24.1 °F 18.2 °F 17.1 °F 75% 30.05 in 10.0 mi WSW 4.6 mph - N/A   Clear
4:53 AM 24.1 °F 19.7 °F 16.0 °F 71% 30.07 in 10.0 mi Variable 3.5 mph - N/A   Clear
5:53 AM 23.0 °F 13.9 °F 15.1 °F 72% 30.09 in 10.0 mi West 8.1 mph - N/A   Clear
6:53 AM 21.9 °F 13.4 °F 14.0 °F 72% 30.13 in 10.0 mi West 6.9 mph - N/A   Clear
7:53 AM 23.0 °F 13.9 °F 12.9 °F 65% 30.16 in 10.0 mi WNW 8.1 mph - N/A   Clear
8:53 AM 25.0 °F 14.2 °F 14.0 °F 63% 30.19 in 10.0 mi West 11.5 mph 18.4 mph N/A   Clear
9:53 AM 28.0 °F 17.5 °F 14.0 °F 56% 30.22 in 10.0 mi WNW 12.7 mph - N/A   Clear
10:53 AM 30.9 °F 24.3 °F 15.1 °F 52% 30.22 in 10.0 mi West 6.9 mph - N/A   Clear
11:53 AM 32.0 °F 24.2 °F 12.9 °F 45% 30.23 in 10.0 mi WNW 9.2 mph 19.6 mph N/A   Partly Cloudy
12:53 PM 32.0 °F 22.5 °F 10.9 °F 42% 30.23 in 10.0 mi WNW 12.7 mph 23.0 mph N/A   Partly Cloudy
1:53 PM 32.0 °F 24.8 °F 10.0 °F 40% 30.23 in 10.0 mi West 8.1 mph 19.6 mph N/A   Partly Cloudy
2:53 PM 32.0 °F 25.6 °F 10.9 °F 42% 30.25 in 10.0 mi Variable 6.9 mph - N/A   Partly Cloudy
3:53 PM 30.0 °F 25.2 °F 9.0 °F 41% 30.27 in 10.0 mi Variable 4.6 mph - N/A   Clear
4:53 PM 28.0 °F 20.8 °F 9.0 °F 45% 30.29 in 10.0 mi WNW 6.9 mph - N/A   Clear
5:53 PM 26.1 °F 19.4 °F 8.1 °F 47% 30.34 in 10.0 mi WNW 5.8 mph - N/A   Clear
6:53 PM 23.0 °F 18.4 °F 9.0 °F 55% 30.37 in 10.0 mi WNW 3.5 mph - N/A   Partly Cloudy
7:53 PM 23.0 °F 17.0 °F 8.1 °F 53% 30.38 in 10.0 mi WNW 4.6 mph - N/A   Partly Cloudy
8:53 PM 21.0 °F 16.2 °F 8.1 °F 57% 30.39 in 10.0 mi WNW 3.5 mph - N/A   Partly Cloudy
9:53 PM 19.9 °F 11.1 °F 8.1 °F 60% 30.39 in 10.0 mi NNW 6.9 mph - N/A   Partly Cloudy
10:53 PM 19.9 °F - 8.1 °F 60% 30.38 in 10.0 mi Calm Calm - N/A   Partly Cloudy
11:53 PM 19.0 °F - 10.0 °F 68% 30.39 in 10.0 mi Calm Calm - N/A   Clear